Home > Weather > Winamac > Past weeks

Flag for U.S.A. Weather for the Past 2 Weeks in Winamac, Indiana, U.S.A.

Now
33 °F

Clear.


Feels Like: 26 °F
Forecast: 31 / 45 °F
Wind: 8 mph from Southwest

Location: Porter County Municipal Airport

Current Time: Feb 7, 2016 at 3:38:11 AM

Latest Report: Feb 7, 2016 at 2:56 AM


Visibility: N/A

Pressure: 30.07 "Hg

Humidity: 82%

Dew point: 28 °F

Location of WinamacLocation

Historic Weather in Winamac — Graph

°F

Winamac Temperature Yesterday

Maximum temperature yesterday: 41 °F (at 3:56 PM)
Minimum temperature yesterday: 19 °F (at 6:56 AM)
Average temperature yesterday: 31 °F

High & Low Weather Summary for the Past Weeks

 TemperatureHumidityPressure
High55 °F (Jan 31, 2:56 PM)100% (Feb 2, 11:56 PM)30.40 "Hg (Feb 2, 11:56 PM)
Low18 °F (Jan 23, 3:56 AM)49% (Feb 4, 3:56 PM)29.46 "Hg (Feb 2, 10:56 PM)
Average33 °F77%29.98 "Hg
* Reported Jan 23 1:56 AM — Feb 7 1:56 AM, Winamac, Weather by CustomWeather, © 2016

Note: Actual official high and low records may vary slightly from our data, if they occured in-between our weather recording intervals... More about our weather records

Advertising

Winamac Weather History for the Previous 24 Hours

 ConditionsComfort  
Time TempWeatherWind HumidityBarometerVisibility
1:56 AM
Sun, Feb 7
32 °FClear.7 mph82%30.08 "HgN/A
12:56 AM32 °FClear.5 mph82%30.09 "HgN/A
11:56 PM
Sat, Feb 6
32 °FClear.6 mph82%30.12 "HgN/A
10:56 PM33 °FClear.5 mph78%30.14 "HgN/A
9:56 PM33 °FClear.5 mph82%30.16 "HgN/A
8:56 PM34 °FClear.5 mph76%30.18 "HgN/A
7:56 PM35 °FClear.5 mph75%30.20 "HgN/A
6:56 PM36 °FClear.No wind73%30.20 "HgN/A
5:56 PM38 °FClear.7 mph68%30.20 "HgN/A
4:56 PM40 °FSunny.14 mph63%30.21 "HgN/A
3:56 PM41 °FPassing clouds.15 mph58%30.22 "HgN/A
2:56 PM40 °FPassing clouds.16 mph58%30.22 "HgN/A
1:56 PM39 °FSunny.16 mph60%30.24 "HgN/A
12:56 PM37 °FSunny.13 mph60%30.27 "HgN/A
11:56 AM36 °FSunny.13 mph64%30.30 "HgN/A
10:56 AM32 °FSunny.13 mph75%30.33 "HgN/A
9:56 AM28 °FSunny.10 mph81%30.33 "HgN/A
8:56 AM24 °FSunny.10 mph88%30.33 "HgN/A
7:56 AM23 °FOvercast.6 mph92%30.33 "HgN/A
6:56 AM19 °FScattered clouds.3 mph96%30.33 "HgN/A
5:56 AM22 °FClear.No wind92%30.32 "HgN/A
4:56 AM23 °FOvercast.5 mph92%30.32 "HgN/A
3:56 AM22 °FPassing clouds.5 mph92%30.32 "HgN/A
Weather by CustomWeather, © 2016

See weather overviewHow to use our weather pages